EW4543 Weather Reports


Display with metric or nautical units.
time (UTC)temp
F
wind
direction
speed
MPH
gust
MPH
rain 1hr
in
rain 24hr
in
rain mn
in
humidity
%
barometer
mb
20260509180042 79 223 1.0 3.0 0.00 0.05 0.05 51 1010.1
20260509174540 78 311 0.0 3.0 0.00 0.05 0.05 49 1010.1
20260509173136 79 246 0.0 3.0 0.00 0.05 0.05 53 1010.1
20260509171619 78 218 0.0 2.0 0.00 0.05 0.05 54 1010.1
20260509170038 77 192 1.0 3.0 0.01 0.05 0.05 56 1010.1
20260509164544 76 109 0.0 2.0 0.01 0.05 0.05 56 1010.2
20260509163030 74 124 0.0 1.0 0.01 0.05 0.05 55 1010.2
20260509161526 71 128 0.0 1.0 0.01 0.05 0.05 58 1010.3
20260509160023 68 128 0.0 1.0 0.00 0.04 0.04 60 1010.3
20260509154520 65 108 0.0 1.0 0.00 0.04 0.04 67 1010.5
20260509153013 60 33 0.0 0.0 0.00 0.04 0.04 74 1010.5
20260509151509 57 33 0.0 0.0 0.00 0.04 0.04 79 1010.5
20260509150014 54 311 0.0 0.0 0.00 0.04 0.04 82 1010.5
20260509144503 52 311 0.0 0.0 0.00 0.04 0.04 87 1010.6
20260509143102 51 311 0.0 0.0 0.00 0.04 0.04 90 1010.6
20260509141600 50 311 0.0 0.0 0.00 0.04 0.04 92 1010.5
20260509140104 49 311 0.0 0.0 0.00 0.04 0.04 92 1010.5
20260509134627 49 311 0.0 0.0 0.00 0.04 0.04 92 1010.4
20260509133154 48 311 0.0 0.0 0.00 0.04 0.04 92 1010.5
20260509131607 48 311 0.0 0.0 0.00 0.04 0.04 92 1010.4
20260509130016 48 311 0.0 0.0 0.00 0.04 0.04 93 1010.2
20260509124516 48 311 0.0 0.0 0.01 0.04 0.04 93 1010.1
20260509123011 49 311 0.0 0.0 0.03 0.04 0.04 93 1010.1
20260509121517 49 311 0.0 0.0 0.03 0.04 0.04 93 1010.0
20260509120008 49 311 0.0 0.0 0.02 0.03 0.03 93 1010.0
20260509114512 49 311 0.0 0.0 0.02 0.03 0.03 93 1010.0
20260509113004 50 311 0.0 0.0 0.00 0.01 0.01 93 1009.9
20260509111504 50 311 0.0 0.0 0.00 0.01 0.01 92 1010.0
20260509110002 50 311 0.0 0.0 0.00 0.01 0.01 92 1010.2
20260509104600 51 311 0.0 0.0 0.00 0.01 0.01 92 1010.2
20260509103059 51 311 0.0 0.0 0.00 0.01 0.01 92 1010.2
20260509101604 51 311 0.0 0.0 0.00 0.01 0.01 92 1010.2
20260509100054 52 311 0.0 0.0 0.00 0.01 0.01 92 1010.3
20260509094553 52 311 0.0 0.0 0.00 0.01 0.01 92 1010.3
20260509093056 52 311 0.0 0.0 0.01 0.01 0.01 91 1010.4
20260509091551 52 311 0.0 0.0 0.01 0.01 0.01 91 1010.4
20260509090047 53 311 0.0 0.0 0.01 0.01 0.01 91 1010.5
20260509084548 53 311 0.0 0.0 0.01 0.01 0.01 91 1010.6
20260509083047 53 311 0.0 0.0 0.00 0.00 0.00 90 1010.7
20260509081545 53 311 0.0 0.0 0.00 0.00 0.00 90 1010.8
20260509080040 54 311 0.0 0.0 0.00 0.00 0.00 90 1010.8
20260509074546 54 311 0.0 0.0 0.00 0.00 0.00 89 1010.8
20260509073036 54 311 0.0 0.0 0.00 0.00 0.00 89 1010.8
20260509071535 54 311 0.0 0.0 0.00 0.00 0.00 89 1010.6
20260509070034 54 311 0.0 0.0 0.00 0.00 0.00 89 1010.8
20260509064540 55 311 0.0 0.0 0.00 0.00 0.00 88 1010.8
20260509063030 55 311 0.0 0.0 0.00 0.00 0.00 88 1010.8
20260509061531 55 311 0.0 0.0 0.00 0.00 0.00 87 1010.8
20260509060030 56 311 0.0 0.0 0.00 0.00 0.00 86 1010.8
20260509054630 56 311 0.0 0.0 0.00 0.00 0.00 85 1010.9
20260509053029 57 311 0.0 0.0 0.00 0.00 0.00 84 1010.9
20260509051534 57 311 0.0 0.0 0.00 0.00 0.00 84 1010.9
20260509050033 58 311 0.0 0.0 0.00 0.00 0.00 83 1011.0
20260509044527 59 311 0.0 0.0 0.00 0.00 0.00 82 1010.9
20260509043026 59 311 0.0 0.0 0.00 0.00 0.00 80 1010.8
20260509041527 60 311 0.0 0.0 0.00 0.00 0.00 79 1010.7
20260509040026 61 311 0.0 0.0 0.00 0.00 0.00 78 1010.6
20260509034539 62 311 0.0 0.0 0.00 0.00 0.00 76 1010.5
20260509033024 63 311 0.0 0.0 0.00 0.00 0.00 73 1010.5
20260509031524 64 311 0.0 0.0 0.00 0.00 0.00 70 1010.4
20260509030024 66 311 0.0 0.0 0.00 0.00 0.00 66 1010.2
20260509024518 67 311 0.0 0.0 0.00 0.00 0.00 63 1010.1
20260509023017 70 311 0.0 1.0 0.00 0.00 0.00 59 1010.2
20260509021520 75 311 0.0 2.0 0.00 0.00 0.00 49 1010.1
20260509020016 76 285 0.0 1.0 0.00 0.00 0.00 44 1010.2
20260509014517 77 236 0.0 1.0 0.00 0.00 0.00 41 1010.3
20260509013016 76 293 0.0 2.0 0.00 0.00 0.00 39 1010.3
20260509011514 76 293 1.0 3.0 0.00 0.00 0.00 39 1010.2
20260509010015 76 250 0.0 2.0 0.00 0.00 0.00 40 1010.2
20260509004511 76 242 0.0 3.0 0.00 0.00 0.00 38 1010.4
20260509003010 77 13 1.0 3.0 0.00 0.00 0.00 39 1010.5
20260509001508 77 301 1.0 3.0 0.00 0.00 0.00 41 1010.6
20260509000007 77 335 2.0 4.0 0.00 0.00 0.00 39 1010.6
20260508234506 76 287 1.0 5.0 0.00 0.00 0.00 40 1010.8
20260508233003 77 231 0.0 3.0 0.00 0.00 0.00 46 1010.7
20260508231502 78 33 1.0 4.0 0.00 0.00 0.00 42 1010.9
20260508230100 78 332 2.0 5.0 0.00 0.00 0.00 43 1011.0
20260508224559 78 228 1.0 3.0 0.00 0.00 0.00 44 1011.1
20260508223055 79 239 2.0 4.0 0.00 0.00 0.00 42 1011.4
20260508221553 78 108 0.0 4.0 0.00 0.00 0.00 43 1011.5
20260508220051 80 192 1.0 4.0 0.00 0.00 0.00 45 1011.7
20260508214602 79 289 0.0 4.0 0.00 0.00 0.00 44 1011.9
20260508213048 80 215 1.0 3.0 0.00 0.00 0.00 47 1012.0
20260508211548 80 288 2.0 5.0 0.00 0.00 0.00 45 1012.1
20260508210052 80 245 2.0 5.0 0.00 0.00 0.00 48 1012.1
20260508204547 80 285 1.0 4.0 0.00 0.00 0.00 48 1012.2
20260508203044 80 231 1.0 6.0 0.00 0.00 0.00 46 1012.3
20260508201544 81 230 1.0 4.0 0.00 0.00 0.00 42 1012.3
20260508200043 81 287 1.0 3.0 0.00 0.00 0.00 38 1012.3
20260508194540 80 224 1.0 4.0 0.00 0.00 0.00 44 1012.5
20260508193051 79 299 1.0 4.0 0.00 0.00 0.00 41 1012.5
20260508191548 79 98 0.0 5.0 0.00 0.00 0.00 44 1012.4
20260508190050 79 308 1.0 3.0 0.00 0.00 0.00 42 1012.6
20260508184537 78 261 1.0 4.0 0.00 0.00 0.00 46 1012.8
20260508183044 79 312 0.0 2.0 0.00 0.00 0.00 48 1012.9
20260508181537 78 230 1.0 3.0 0.00 0.00 0.00 47 1012.9